Regional Weather Roundup
Issued by NWS

Home | Current Version | Previous Version | Graphics & Text | Print | Product List | Glossary On
Versions: 1 2 3 4 5 6 7 8 9 10 11 12 13 14 15 16 17 18 19 20 21 22 23 24 25 26 27 28 29 30 31 32 33 34 35 36 37 38 39 40 41 42 43 44 45 46 47 48 49 50
000
ASUS45 KPSR 101210
RWRAZ

ARIZONA HOURLY REGIONAL WEATHER ROUNDUP
NATIONAL WEATHER SERVICE PHOENIX AZ
500 AM MST WED FEB 10 2016

NOTE: FAIR INDICATES FEW OR NO CLOUDS BELOW 12,000 FEET WITH NO
SIGNIFICANT WEATHER AND/OR OBSTRUCTIONS TO VISIBILITY.

AZZ001>003-036-101300-
NORTHWEST ARIZONA

CITY           SKY/WX    TMP DP  RH WIND       PRES   REMARKS
BULLHEAD CITY  PTCLDY    64  27  24 N17       30.21
KINGMAN        PTCLDY    39  23  52 E7        30.28S WCI  34
6HR MIN TEMP:  36; 6HR MAX TEMP:  52;

$$

AZZ004>008-015-016-018-101300-
NORTH CENTRAL ARIZONA

CITY           SKY/WX    TMP DP  RH WIND       PRES   REMARKS
GRAND CANYON   PTCLDY    25  17  72 NE12      30.41F WCI  14
6HR MIN TEMP:  23; 6HR MAX TEMP:  35;

WILLIAMS       PTCLDY    28  16  59 S13       30.45S WCI  18
PRESCOTT       PTCLDY    33  18  53 S12       30.36S WCI  24
6HR MIN TEMP:  30; 6HR MAX TEMP:  39;

FLAGSTAFF      CLEAR     22  13  68 CALM      30.43R
6HR MIN TEMP:  22; 6HR MAX TEMP:  28;

PAYSON         CLEAR     45  16  31 CALM      30.37S
PAGE           PTCLDY    33  26  75 CALM      30.41S
6HR MIN TEMP:  32; 6HR MAX TEMP:  39;

$$

AZZ009>014-017-101300-
NORTHEAST ARIZONA

CITY           SKY/WX    TMP DP  RH WIND       PRES   REMARKS
WINSLOW        MOCLDY    23  18  81 E7        30.42R WCI  15
6HR MIN TEMP:  22; 6HR MAX TEMP:  36;

SAINT JOHNS    CLEAR     21  15  78 CALM      30.41R
6HR MIN TEMP:  21; 6HR MAX TEMP:  35;

WINDOW ROCK    CLEAR     23   0  36 CALM      30.43S
6HR MIN TEMP:  23; 6HR MAX TEMP:  28;

SHOW LOW       PTCLDY    27  18  69 CALM      30.43R
$$

AZZ023-101300-
GREATER PHOENIX AREA

CITY           SKY/WX    TMP DP  RH WIND       PRES   REMARKS
PHOENIX        CLEAR     57  30  35 CALM      30.16R
6HR MIN TEMP:  57; 6HR MAX TEMP:  71;

BUCKEYE        CLEAR     46  25  42 N7        30.19R
LUKE AFB       CLEAR     49  27  42 NW8       30.17R
6HR MIN TEMP:  49; 6HR MAX TEMP:  63;

DEER VALLEY    CLEAR     56  20  24 CALM      30.18R
6HR MIN TEMP:  53; 6HR MAX TEMP:  67;

SCOTTSDALE     CLEAR     52  26  36 CALM      30.19R
6HR MIN TEMP:  51; 6HR MAX TEMP:  63;

MESA-GATEWAY   CLEAR     46  28  49 SE5       30.19R
$$

AZZ027-028-101300-
SOUTHWEST MARICOPA COUNTY AND PINAL COUNTY

CITY           SKY/WX    TMP DP  RH WIND       PRES   REMARKS
CASA GRANDE    CLEAR     52  25  35 CALM      30.18S
6HR MIN TEMP:  48; 6HR MAX TEMP:  64;

GILA BEND      FAIR      47  28  46 E9        30.15R
6HR MIN TEMP:  47; 6HR MAX TEMP:  58;

$$

AZZ503-504-507>509-101300-
SOUTHEAST ARIZONA

CITY           SKY/WX    TMP DP  RH WIND       PRES   REMARKS
TUCSON         CLEAR     46  21  37 W5        30.22R
6HR MIN TEMP:  46; 6HR MAX TEMP:  63;

DAVIS-MONTHAN  CLEAR     53  19  26 SE18      30.21R
6HR MIN TEMP:  51; 6HR MAX TEMP:  59;

NOGALES        CLEAR     44  17  33 NE7       30.25R
6HR MIN TEMP:  43; 6HR MAX TEMP:  56;

DOUGLAS        PTCLDY    34  18  52 VRB7      30.30R WCI  28
6HR MIN TEMP:  29; 6HR MAX TEMP:  51;

SAFFORD        CLEAR     47  24  40 SE8       30.30R
6HR MIN TEMP:  40; 6HR MAX TEMP:  53;

$$

AZZ020-021-025-026-031-101300-
SOUTHWEST ARIZONA

CITY           SKY/WX    TMP DP  RH WIND       PRES   REMARKS
YUMA           CLEAR     57  26  30 NE3       30.11F
6HR MIN TEMP:  57; 6HR MAX TEMP:  72;

$$

CAZ031-033-041-043-047-048-061-101300-
SOUTHERN CALIFORNIA

CITY           SKY/WX    TMP DP  RH WIND       PRES   REMARKS
DOWNTOWN L.A.  CLEAR     63  29  27 NE3       30.10F
6HR MIN TEMP:  61; 6HR MAX TEMP:  68;

L.A. AIRPORT   PTCLDY    64  29  26 CALM      30.11S
6HR MIN TEMP:  60; 6HR MAX TEMP:  71;

SAN DIEGO      CLEAR     62  35  36 N5        30.11F
6HR MIN TEMP:  58; 6HR MAX TEMP:  69;

BURBANK        CLEAR     61  24  24 CALM      30.12F
6HR MIN TEMP:  59; 6HR MAX TEMP:  68;

ONTARIO        PTCLDY    52  30  43 CALM      30.14S
6HR MIN TEMP:  50; 6HR MAX TEMP:  68;

RIVERSIDE      CLEAR     55  30  38 E5        30.14F
6HR MIN TEMP:  54; 6HR MAX TEMP:  67;

PALM SPRINGS   CLEAR     58  26  29 NW7       30.16R
6HR MIN TEMP:  58; 6HR MAX TEMP:  68;

EL CENTRO NAS  CLEAR     50  22  33 W5        30.13S
6HR MIN TEMP:  48; 6HR MAX TEMP:  60;

IMPERIAL       CLEAR     51  29  42 W5        30.11S
6HR MIN TEMP:  49; 6HR MAX TEMP:  59;

BLYTHE         CLEAR     58  25  28 CALM      30.16R
6HR MIN TEMP:  54; 6HR MAX TEMP:  64;

NEEDLES        PTCLDY    55  27  34 W7        30.20R
6HR MIN TEMP:  55; 6HR MAX TEMP:  66;

$$

NVZ020-UTZ003-101300-
SOUTHERN NEVADA-UTAH

CITY           SKY/WX    TMP DP  RH WIND       PRES   REMARKS
LAS VEGAS      MOCLDY    50  28  42 SW3       30.25R
6HR MIN TEMP:  49; 6HR MAX TEMP:  58;

SALT LAKE CITY FOG       29  27  92 CALM      30.46S VSB 1/2
6HR MIN TEMP:  26; 6HR MAX TEMP:  29;

$$

NMZ009-TXZ055-101300-
NEW MEXICO-WEST TEXAS

CITY           SKY/WX    TMP DP  RH WIND       PRES   REMARKS
ALBUQUERQUE    CLOUDY    32  20  61 CALM      30.40R
6HR MIN TEMP:  31; 6HR MAX TEMP:  45;

EL PASO        MOCLDY    37  18  46 NE8       30.35R WCI  31
6HR MIN TEMP:  33; 6HR MAX TEMP:  46;

$$


........................KEY........................
SKY/WX - SKY CONDITION/WEATHER
TMP    - TEMPERATURE IN FAHRENHEIT
DP     - DEW POINT IN FAHRENHEIT
RH     - RELATIVE HUMIDITY IN PERCENT
WIND   - DIRECTION AND SPEED IN MILES PER HOUR (MPH)
VRB    - VARIABLE WIND DIRECTION
PRES   - MEAN SEA LEVEL PRESSURE IN INCHES OF MERCURY
         F - FALLING PRESSURE   R - RISING PRESSURE
         S - STEADY PRESSURE
VSB    - VISIBILITY IN MILES
HX     - HEAT INDEX IN FAHRENHEIT
WCI    - WIND CHILL INDEX IN FAHRENHEIT
TC     - TEMPERATURE IN CELSIUS WHICH IS ALSO KNOWN AS
         TEMPERATURE IN CENTIGRADE
AFB    - AIR FORCE BASE
         LUKE AFB IS LUKE AIR FORCE BASE
         DAVIS-MONTHAN IS DAVIS-MONTHAN AIR FORCE BASE
NAS    - NAVAL AIR STATION
         EL CENTRO NAS IS EL CENTRO NAVAL AIR STATION
N/A    - NOT AVAILABLE




USA.gov is the U.S. government's official web portal to all federal, state and local government web resources and services.